Location: Rumah Apan
(2.7833°N, 113.9500°E)
Time: 22:52:30
(UTC+00:00)

Cosmos 2082 Rocket - Pass Details

Date: 25 July 2021
Orbit: 831 x 855 km, 71.0° (Epoch: 22 September)

Event Time Altitude Azimuth Distance (km) Brightness Sun altitude
Rises 11:21:23 0° 169° (S) 3,371 5.0 -10.9°
Reaches altitude 10° 11:24:21 10° 154° (SSE) 2,435 4.2 -11.6°
Maximum altitude 11:28:33 22° 105° (ESE) 1,744 3.2 -12.6°
Drops below altitude 10° 11:32:44 10° 56° (NE) 2,431 4.3 -13.6°
Sets 11:35:41 0° 41° (NE) 3,365 5.1 -14.3°
